SIA967 WIII-WSSS

Flight info

Callsign SIA967
Flight time N/A
Altitude 40000
Route DOLTA2A/07L DOLTA G579 REPOV REPOV2B
Aircraft A359/H-SDE1E2E3GHIJ1J2J3J5M1P2RWXYZ/LB1D1

Departure

Time N/A
Airport Soekarno-Hatta International Airport (WIII)

Arrival

Time 2026-05-01 10:33
Airport Singapore Changi Airport (WSSS)
Time Latitude Longitude Altitude Speed Heading
2026-05-01 10:22 1.21537 104.16589 7611 ft 286 kts 25°
2026-05-01 10:23 1.23361 104.17367 7192 ft 284 kts 24°
2026-05-01 10:23 1.26972 104.18907 6447 ft 280 kts 24°
2026-05-01 10:23 1.28762 104.19670 6037 ft 278 kts 24°
2026-05-01 10:24 1.32352 104.21045 5257 ft 275 kts 12°
2026-05-01 10:24 1.36129 104.20681 4777 ft 277 kts 349°
2026-05-01 10:25 1.39881 104.19847 4300 ft 274 kts 348°
2026-05-01 10:25 1.43572 104.19042 4039 ft 262 kts 349°
2026-05-01 10:26 1.45286 104.18670 3928 ft 248 kts 349°
2026-05-01 10:26 1.46946 104.18313 3814 ft 240 kts 349°
2026-05-01 10:26 1.50197 104.17585 3581 ft 240 kts 344°
2026-05-01 10:27 1.52393 104.15299 3339 ft 239 kts 281°
2026-05-01 10:27 1.52662 104.12007 3095 ft 239 kts 272°
2026-05-01 10:28 1.52744 104.10351 2980 ft 238 kts 273°
2026-05-01 10:28 1.52894 104.07050 2717 ft 233 kts 265°
2026-05-01 10:28 1.52262 104.05643 2622 ft 218 kts 226°
2026-05-01 10:29 1.49949 104.04114 2426 ft 190 kts 197°
2026-05-01 10:29 1.48725 104.03649 2318 ft 187 kts 204°
2026-05-01 10:30 1.46389 104.02620 1901 ft 178 kts 201°
2026-05-01 10:30 1.44155 104.01673 1404 ft 170 kts 202°
2026-05-01 10:31 1.42078 104.00789 1000 ft 156 kts 200°
2026-05-01 10:31 1.40170 103.99978 615 ft 144 kts 203°
2026-05-01 10:32 1.38335 103.99199 200 ft 144 kts 205°
2026-05-01 10:32 1.37433 103.98814 53 ft 143 kts 204°
2026-05-01 10:32 1.35953 103.98193 37 ft 53 kts 203°
2026-05-01 10:33 1.35579 103.98116 37 ft 6 kts 172°
2026-05-01 10:33 1.35555 103.98218 37 ft 12 kts 41°
2026-05-01 10:34 1.35627 103.98250 37 ft 13 kts 24°
2026-05-01 10:34 1.35717 103.98287 37 ft 15 kts 22°
2026-05-01 10:34 1.35823 103.98331 37 ft 18 kts 22°
2026-05-01 10:35 1.36086 103.98443 37 ft 22 kts 27°
2026-05-01 10:35 1.36090 103.98548 37 ft 16 kts 113°
2026-05-01 10:35 1.36084 103.98632 37 ft 12 kts 51°
2026-05-01 10:35 1.36161 103.98671 37 ft 14 kts 23°
2026-05-01 10:36 1.36331 103.98752 37 ft 7 kts 65°
2026-05-01 10:36 1.36319 103.98787 37 ft 7 kts 113°
2026-05-01 10:36 1.36304 103.98820 37 ft 3 kts 114°
2026-05-01 10:37 1.36300 103.98830 37 ft 2 kts 114°
2026-05-01 10:37 1.36298 103.98833 32 ft 0 kts 114°